Weather in Rostoshi

Russia / Voronezh Oblast     51°35′28″N   40°55′55″E
temp.,
°C
wind,
m/s
gust,
m/s
humid.,
%
clouds,
%
prec.,
mm/h
press.,
hPa
HPBL,
m
4 march, thu
thu400:00−2w6119289 0.0 1016450
03:00−1wsw6119294 0.1 1015681
06:00−1w71390100 0.1 1013858
09:00−1wsw8159194 0.1 1012567
12:00+1wsw815883 0.0 1010736
15:00+2wsw816852 0.0 1008787
18:00+2wsw717790 0.0 1006635
21:00+1sw716849 0.0 1005532
5 march, fri
fri500:00+1w6139687 0.1 1004570
03:00+1wsw6129894 0.2 1004541
06:00+1w61197100 0.3 1004477
09:000wnw4992100 0.4 1006488
12:000nw569299 0.0 1009608
15:00−1nnw358599 0.1 1011702
18:00−3wnw1188100 0.0 101221
21:00−3wnw1189100 0.0 101521
6 march, sat
sat600:00−4n1291100 0.0 101521
03:00−4ne2394100 0.0 101579
06:00−5ene2494100 0.0 1015130
09:00−4ene2394100 0.0 1015185
12:00−3ene2387100 0.0 1015329
15:00−3ene2284100 0.0 1014420
18:00−5ne229176 0.0 101423
21:00−6ne129377 0.0 101527
7 march, sun
sun700:00−6nne1295100 0.4 101673
03:00−6nw4795100 0.5 1017319
06:00−9wnw499158 0.0 1018273
09:00−7wsw5108029 0.0 1018615
12:00−4wsw8127276 0.0 10161065
15:00−2sw9156688 0.0 10121228
18:00−2sw81766100 0.0 10091244
21:00−2wsw101789100 0.1 10071081
8 march, mon
mon800:00−2wsw91685100 0.1 1007877
03:00−2wsw6138899 0.4 1006651
06:00−2sw71490100 0.1 1004699
09:00−2wsw101593100 0.6 10031003
12:00−1w91396100 0.8 1004970
15:00−4wnw9136699 1.0 10081436
18:00−6wnw411750 0.0 1010352
21:00−9wnw36840 0.0 1013137